Weather in Navesnoye

Russia / Oryol Oblast     52°17′02″N   37°56′59″E
temp.,
°C
wind,
m/s
gust,
m/s
humid.,
%
clouds,
%
prec.,
mm/h
press.,
hPa
HPBL,
m
13 april, tue
tue1300:00+12se5136795 0.0 1024250
03:00+10ese41272100 0.0 1024199
06:00+9se41269100 0.0 1025211
09:00+14se6115486 0.0 1025402
12:00+19se7113653 0.0 10231274
15:00+21se812285 0.0 10221923
18:00+19sse61040100 0.0 1021471
21:00+14se4115587 0.0 1022239
14 april, wed
wed1400:00+12se4763100 0.0 1022130
03:00+10se3765100 0.0 1021119
06:00+9ese376614 0.0 1020119
09:00+13se594997 0.0 1019428
12:00+17se693397 0.0 10181090
15:00+19se682796 0.0 10172094
18:00+17se4837100 0.0 1016302
21:00+13sse354696 0.0 101783
15 april, thu
thu1500:00+11nw227789 0.0 101722
03:00+11nne2277100 0.0 101623
06:00+11ne2272100 0.0 101524
09:00+12ese2460100 0.0 1016179
12:00+16sse2350100 0.0 1015752
15:00+17s2348100 0.4 10141194
18:00+13w5674100 0.4 1014217
21:00
16 april, fri
fri1600:00+11e51181100 1.0 1013331
03:00+11ese2281100 1.2 101237
06:00+10ese3487100 0.0 101388
09:00+12se2279100 0.1 1014337
12:00+13sse237187 0.5 1015682
15:00+14ssw4461100 0.6 1015937
18:00+12se1270100 0.3 1015341
21:00+11ese118161 1.4 101712
17 april, sat
sat1700:00+10w228395 0.1 101632
03:00+9nne469391 1.6 1017202
06:00+8nw239495 0.1 101751
09:00+11n3487100 0.1 1018457
12:00+11ne5885100 0.3 1019853
15:00+13ne71170100 1.4 10181226
18:00+13ene81468100 1.3 1019822
21:00+11ne8156758 1.4 1020669